Weather History for KHIE - December, 2013

Change the Weather History Date:

Sunday, December 1, 2013

  Actual Average Record
Temperature  
Mean Temperature 30 °F -  
Max Temperature 36 °F 35 °F 57 °F (2001)
Min Temperature 23 °F 18 °F 1 °F (2007)
Degree Days  
Heating Degree Days 36    
Moisture  
Dew Point 25 °F    
Average Humidity 82    
Maximum Humidity 89    
Minimum Humidity 67    
Precipitation  
Precipitation 0.02 in - - ()
Sea Level Pressure  
Sea Level Pressure 30.15 in    
Wind  
Wind Speed 1 mph (NE)    
Max Wind Speed 8 mph    
Max Gust Speed -    
Visibility 6 miles    
Events Snow    
Averages and records for this station are not official NWS values.
T = Trace of Precipitation, MM = Missing Value Source: NWS Daily Summary

Daily Weather History Graph

Daily Weather History Graph

Search for Another Location

Airport or City:

Trip Planner

Search our weather history database for the weather conditions in past years. The results will help you decide how hot, cold, wet, or windy it might be!

Date:

Astronomy

Dec. 01, 2013 Rise Set
Actual Time 7:02 AM EST 4:08 PM EST
Civil Twilight 6:29 AM EST 4:40 PM EST
Nautical Twilight 5:53 AM EST 5:17 PM EST
Astronomical Twilight 5:18 AM EST 5:52 PM EST
Moon 5:13 AM EST (12/1) 3:18 PM EST (12/1)
Length of Visible Light 10h 11m
Length of Day
9h 05m
Waning Crescent, 2% of the Moon is Illuminated
Dec 1
Waning Crescent
Dec 2
New
Dec 9
First Quarter
Dec 17
Full
Dec 25
Last Quarter

Hourly Weather History & Observations

Time (EST) Temp. Windchill Dew Point Humidity Pressure Visibility Wind Dir Wind Speed Gust Speed Precip Events Conditions
12:52 AM 23.0 °F - 16.0 °F 74% 30.34 in 10.0 mi Calm Calm - N/A   Clear
1:52 AM 23.0 °F 18.4 °F 15.1 °F 72% 30.34 in 10.0 mi ESE 3.5 mph - N/A   Mostly Cloudy
2:52 AM 23.0 °F - 17.1 °F 78% 30.32 in 10.0 mi Calm Calm - N/A   Overcast
3:20 AM 23.0 °F - 18.0 °F 81% 30.26 in 10.0 mi Calm Calm - N/A   Overcast
3:52 AM 24.1 °F - 18.0 °F 77% 30.30 in 10.0 mi Calm Calm - N/A   Overcast
4:52 AM 25.0 °F - 19.0 °F 78% 30.28 in 10.0 mi Calm Calm - N/A   Overcast
5:33 AM 25.0 °F - 19.9 °F 81% 30.21 in 10.0 mi Calm Calm - N/A   Overcast
5:52 AM 25.0 °F - 19.9 °F 81% 30.26 in 10.0 mi Calm Calm - N/A   Overcast
6:52 AM 25.0 °F - 21.0 °F 85% 30.26 in 10.0 mi Calm Calm - N/A   Overcast
7:52 AM 26.1 °F - 21.0 °F 81% 30.25 in 10.0 mi Calm Calm - N/A   Overcast
8:52 AM 27.0 °F - 21.0 °F 78% 30.25 in 10.0 mi Calm Calm - N/A   Overcast
9:52 AM 28.9 °F - 21.9 °F 75% 30.24 in 10.0 mi Calm Calm - N/A   Overcast
10:52 AM 32.0 °F - 23.0 °F 69% 30.20 in 10.0 mi Calm Calm - N/A   Overcast
11:52 AM 33.1 °F - 24.1 °F 70% 30.18 in 10.0 mi Calm Calm - N/A   Overcast
12:52 PM 34.0 °F - 25.0 °F 70% 30.16 in 10.0 mi Calm Calm - N/A   Overcast
1:52 PM 35.1 °F 32.2 °F 26.1 °F 70% 30.13 in 10.0 mi NE 3.5 mph - N/A   Overcast
2:52 PM 36.0 °F 33.3 °F 26.1 °F 67% 30.13 in 10.0 mi North 3.5 mph - N/A   Overcast
3:35 PM 35.1 °F - 27.0 °F 72% 30.08 in 1.8 mi Calm Calm - 0.00 in Snow Light Snow
3:50 PM 33.8 °F - 28.4 °F 81% 30.09 in 1.2 mi Calm Calm - 0.00 in Snow Light Snow
3:52 PM 34.0 °F - 28.0 °F 79% 30.14 in 1.0 mi Calm Calm - 0.00 in Snow Light Snow
4:02 PM 33.1 °F 30.0 °F 28.9 °F 85% 30.09 in 0.8 mi NNE 3.5 mph - 0.00 in Snow Light Snow
4:09 PM 33.1 °F - 28.9 °F 85% 30.09 in 1.0 mi Calm Calm - 0.00 in Snow Light Snow
4:16 PM 33.1 °F - 28.9 °F 85% 30.09 in 1.2 mi Calm Calm - 0.00 in Snow Light Snow
4:37 PM 33.1 °F - 30.0 °F 89% 30.09 in 1.5 mi Calm Calm - 0.01 in Snow Light Snow
4:52 PM 33.1 °F - 28.9 °F 85% 30.14 in 1.2 mi Calm Calm - 0.01 in Snow Light Snow
4:58 PM 32.0 °F - 28.9 °F 88% 30.09 in 1.0 mi Calm Calm - 0.00 in Snow Light Snow
5:06 PM 32.0 °F - 28.9 °F 88% 30.09 in 1.5 mi Calm Calm - 0.00 in Snow Light Snow
5:14 PM 32.0 °F - 28.9 °F 88% 30.09 in 2.0 mi Calm Calm - 0.00 in Snow Light Snow
5:28 PM 32.0 °F - 28.9 °F 88% 30.09 in 4.0 mi Calm Calm - 0.01 in Snow Light Snow
5:48 PM 32.0 °F - 28.4 °F 87% 30.09 in 3.0 mi Calm Calm - 0.01 in Snow Light Snow
5:49 PM 32.0 °F - 28.9 °F 88% 30.13 in 3.0 mi Calm Calm - 0.01 in Snow Light Snow
6:01 PM 32.0 °F - 28.9 °F 88% 30.08 in 1.8 mi Calm Calm - 0.00 in Snow Light Snow
6:18 PM 32.0 °F 28.7 °F 28.9 °F 88% 30.07 in 2.0 mi NNE 3.5 mph - 0.00 in Snow Light Snow
6:30 PM 32.0 °F 27.5 °F 28.9 °F 88% 30.07 in 5.0 mi North 4.6 mph - 0.00 in Snow Light Snow
6:52 PM 32.0 °F 28.7 °F 28.0 °F 85% 30.12 in 10.0 mi North 3.5 mph - 0.00 in   Overcast
7:52 PM 32.0 °F - 28.9 °F 88% 30.12 in 7.0 mi Calm Calm - N/A   Overcast
8:18 PM 32.0 °F 28.7 °F 28.0 °F 85% 30.06 in 10.0 mi North 3.5 mph - N/A   Overcast
8:45 PM 30.9 °F 27.5 °F 28.0 °F 89% 30.05 in 8.0 mi ENE 3.5 mph - N/A   Overcast
8:52 PM 30.9 °F - 28.0 °F 89% 30.10 in 8.0 mi Calm Calm - N/A   Overcast
9:52 PM 30.9 °F - 28.0 °F 89% 30.09 in 7.0 mi Calm Calm - N/A   Overcast
10:52 PM 30.9 °F 26.2 °F 28.0 °F 89% 30.07 in 7.0 mi ESE 4.6 mph - N/A   Overcast
11:52 PM 32.0 °F 24.8 °F 27.0 °F 82% 30.05 in 10.0 mi East 8.1 mph - N/A   Overcast